Regional Weather Roundup
Issued by NWS

Home | Current Version | Previous Version | Text Only | Print | Product List | Glossary Off
Versions: 1 2 3 4 5 6 7 8 9 10 11 12 13 14 15 16 17 18 19 20 21 22 23 24 25 26 27 28 29 30 31 32 33 34 35 36 37 38 39 40 41 42 43 44 45 46 47 48 49 50

000
ASUS43 KFSD 031210
RWRSD

WEATHER ROUNDUP FOR SOUTH DAKOTA
NATIONAL WEATHER SERVICE SIOUX FALLS SD
600 AM CST TUE MAR 03 2015

NOTE: "FAIR" INDICATES FEW OR NO CLOUDS BELOW 12,000 FEET WITH NO
SIGNIFICANT WEATHER AND/OR OBSTRUCTIONS TO VISIBILITY.


SDZ001>005-009-010-012>017-031300-
NORTHWEST AND NORTH CENTRAL SOUTH DAKOTA

CITY           SKY/WX    TMP DP  RH WIND       PRES   REMARKS
BUFFALO          N/A     10   2  69 NW25G33   29.89R WCI -11
FAITH            N/A     15   6  67 N29G38    29.90R WCI  -5
MOBRIDGE       CLOUDY    16   4  59 N32G44    29.84R WCI  -5
$$

SDZ012>016-024>037-041>051-057-063-072>074-031300-
SOUTHWEST AND SOUTH CENTRAL SOUTH DAKOTA

CITY           SKY/WX    TMP DP  RH WIND       PRES   REMARKS
RAPID CTY ARPT FOG       15  12  88 N32G43    29.89R VSB 3/4 WCI  -6
PIERRE         LGT SNOW  18  14  84 N29G43    29.83R VSB 1   WCI  -1
CUSTER         CLOUDY    10   1  67 N14G24    29.70R WCI  -6
ELLSWORTH AFB  LGT SNOW  16  12  86 N33G41    29.88  VSB 1   WCI  -5
PHILIP         LGT SNOW  17  12  80 N30G36    29.92R VSB 3/4 WCI  -3
PINE RIDGE     LGT SNOW  17  11  77 N17G30    29.86R WCI   1
SPEARFISH      LGT SNOW   9   7  92 NW21G29   29.97R WCI -11
WINNER         LGT SNOW  22  16  78 N31G41    29.77R VSB 3/4 WCI   4
$$

SDZ004>011-016>023-039-040-031300-
NORTHEAST SOUTH DAKOTA

CITY           SKY/WX    TMP DP  RH WIND       PRES   REMARKS
ABERDEEN       CLOUDY    19  14  81 N25G35    29.78R HAZE    WCI   1
WATERTOWN      LGT SNOW  24  21  88 W7        29.66R FOG     WCI  16
$$

SDZ017-020-022-023-036>040-048>070-031300-
SOUTHEAST SOUTH DAKOTA

CITY           SKY/WX    TMP DP  RH WIND       PRES   REMARKS
SIOUX FALLS    SNOW      25  22  88 CALM      29.67R VSB 1/2
HURON          LGT SNOW  25  24  96 W5        29.70R VSB 3/4 WCI  19
CHAMBERLAIN    LGT SNOW  22  19  91 N26G35    29.76R VSB 3/4 WCI   5
MITCHELL       LGT SNOW  26  24  92 CALM      29.68S FOG
YANKTON        CLOUDY    28  19  69 CALM      29.67S
$$

ABBREVIATIONS USED IN REMARKS
   TC - TEMPERATURE IN CELSIUS
  WCI - WIND CHILL INDEX
   HX - HEAT INDEX
  VSB - VISIBILITY



USA.gov is the U.S. government's official web portal to all federal, state and local government web resources and services.